Погода в Поселке Мичурина

Россия / Республика Адыгея     44°27′35″N   40°09′29″E
темп.,
°C
ветер,
м/с
пор.,
м/с
влажн.,
%
обл.,
%
осадки,
мм/ч
давл.,
гПа
погр.,
м
19 апреля, пн
пн1900:00+10ююв1196100 0.1 101510
03:00+10ссв1197100 0.4 101512
06:00+11юз0099100 2.3 101515
09:00+13юв129596 5.6 101487
12:00+15зсз2592100 0.9 1013152
15:00+15з3108994 1.3 1013415
18:00+15ссв2390100 0.1 1013254
21:00+13в3896100 0.2 1013345
20 апреля, вт
вт2000:00+12в2497100 0.0 1009115
03:00+11сз1599100 0.0 1008274
06:00+12в1297100 0.0 1004112
09:00+17зсз2374100 0.0 1003309
12:00+20сз35625 0.0 1004740
15:00+18з813596 0.0 1006851
18:00+13зюз9165293 0.0 1009968
21:00+11юз41462100 0.1 1012755
21 апреля, ср
ср2100:00+10зсз2375100 0.0 1014174
03:00+9св118496 0.0 101586
06:00+7св2394100 0.0 1017141
09:00+10всв2484100 0.0 1018621
12:00+11в3379100 0.1 1019653
15:00+13юв127071 0.4 1018651
18:00+13ссз247719 0.5 1019235
21:00+10юз118540 0.6 102110
22 апреля, чт
чт2200:00+8ю1186100 0.0 102110
03:00+7ссз1186100 0.0 102112
06:00+7ю008790 0.0 102214
09:00+13св116413 0.1 1022584
12:00+15ссв226252 0.6 10211241
15:00+14ссз1277100 4.1 1022754
18:00+12в11887 3.8 102249
21:00+8ю11943 5.8 102413
23 апреля, пт
пт2300:00+7ю11957 0.1 102417
03:00+6ююз11956 0.1 102415
06:00+6ю11950 0.0 102416
09:00+13ссв11796 0.0 1023526
12:00+17ссз224810 0.0 10221753
15:00+17с334883 0.0 10201675
18:00+14св237398 0.2 1021100
21:00+10юв22845 0.2 102117